JAL8118 RJBE-RJFK

Flight info

Callsign JAL8118
Flight time 1h 9m
Altitude 40000
Route MUKRI ATKAS TANTA Y236 VEXOT Y756 VIRUD Y757 SPICA
Aircraft A359/H-SDE2E3GHIJ3J4J5LM1ORWXY/LB1D1

Departure

Time 2026-05-04 12:10
Airport Kobe Airport (RJBE)

Arrival

Time 2026-05-04 13:20
Airport Kagoshima Airport (RJFK)
Time Latitude Longitude Altitude Speed Heading
2026-05-04 11:55 34.63592 135.22660 42 ft 0 kts 355°
2026-05-04 12:02 34.63544 135.22664 40 ft 3 kts 355°
2026-05-04 12:03 34.63523 135.22667 42 ft 3 kts 355°
2026-05-04 12:03 34.63503 135.22669 40 ft 3 kts
2026-05-04 12:03 34.63484 135.22661 40 ft 3 kts 36°
2026-05-04 12:03 34.63469 135.22644 40 ft 3 kts 54°
2026-05-04 12:04 34.63461 135.22623 40 ft 3 kts 76°
2026-05-04 12:04 34.63458 135.22607 41 ft 0 kts 84°
2026-05-04 12:05 34.63458 135.22610 39 ft 3 kts 84°
2026-05-04 12:05 34.63465 135.22708 42 ft 20 kts 86°
2026-05-04 12:05 34.63481 135.22953 41 ft 35 kts 85°
2026-05-04 12:06 34.63505 135.23251 41 ft 37 kts 85°
2026-05-04 12:06 34.63530 135.23565 41 ft 30 kts 84°
2026-05-04 12:06 34.63481 135.23722 41 ft 0 kts 165°
2026-05-04 12:06 34.63480 135.23722 41 ft 0 kts 171°
2026-05-04 12:07 34.63474 135.23723 41 ft 3 kts 172°
2026-05-04 12:08 34.63431 135.23721 39 ft 9 kts 191°
2026-05-04 12:08 34.63376 135.23657 38 ft 13 kts 248°
2026-05-04 12:08 34.63369 135.23612 37 ft 0 kts 264°
2026-05-04 12:10 34.63369 135.23611 37 ft 0 kts 264°
2026-05-04 12:10 34.63353 135.23389 38 ft 65 kts 265°
2026-05-04 12:10 34.63294 135.22551 48 ft 131 kts 266°
2026-05-04 12:10 34.63257 135.21407 702 ft 136 kts 275°
2026-05-04 12:11 34.63389 135.20310 1517 ft 135 kts 263°
2026-05-04 12:11 34.62811 135.19275 1924 ft 168 kts 229°
2026-05-04 12:11 34.61899 135.18229 2158 ft 193 kts 231°
2026-05-04 12:11 34.60954 135.16934 2368 ft 216 kts 236°
2026-05-04 12:12 34.60025 135.15428 2717 ft 228 kts 241°
2026-05-04 12:12 34.59205 135.13786 3226 ft 232 kts 243°
2026-05-04 12:12 34.58378 135.12108 3853 ft 231 kts 243°
2026-05-04 12:12 34.57555 135.10423 4394 ft 233 kts 243°
2026-05-04 12:13 34.56734 135.08717 4939 ft 235 kts 243°
2026-05-04 12:14 34.51043 134.96662 9729 ft 234 kts 242°
2026-05-04 12:15 34.50245 134.94964 10579 ft 231 kts 241°
2026-05-04 12:15 34.49443 134.93264 11277 ft 233 kts 241°
2026-05-04 12:15 34.48616 134.91548 11665 ft 243 kts 240°
2026-05-04 12:15 34.47747 134.89740 11912 ft 253 kts 240°
2026-05-04 12:16 34.46856 134.87852 12103 ft 262 kts 241°
2026-05-04 12:16 34.45940 134.85902 12277 ft 271 kts 241°
2026-05-04 12:16 34.44975 134.83864 12668 ft 286 kts 240°
2026-05-04 12:16 34.43993 134.81800 13598 ft 286 kts 240°
2026-05-04 12:17 34.43000 134.79721 14514 ft 285 kts 240°
2026-05-04 12:17 34.42009 134.77636 15359 ft 287 kts 240°
2026-05-04 12:17 34.41007 134.75531 16181 ft 290 kts 240°
2026-05-04 12:17 34.39996 134.73408 17045 ft 292 kts 240°
2026-05-04 12:18 34.38978 134.71272 17894 ft 294 kts 240°
2026-05-04 12:18 34.37950 134.69115 18645 ft 298 kts 240°
2026-05-04 12:18 34.36908 134.66931 19341 ft 301 kts 240°
2026-05-04 12:18 34.35857 134.64729 20032 ft 304 kts 240°
2026-05-04 12:19 34.34810 134.62538 20735 ft 306 kts 240°
2026-05-04 12:19 34.33737 134.60293 21432 ft 310 kts 240°
2026-05-04 12:19 34.32653 134.58026 22135 ft 313 kts 240°
2026-05-04 12:19 34.31560 134.55741 22828 ft 316 kts 240°
2026-05-04 12:20 34.30453 134.53429 23497 ft 319 kts 240°
2026-05-04 12:20 34.29322 134.51104 24060 ft 323 kts 238°
2026-05-04 12:20 34.28010 134.48886 24641 ft 326 kts 233°
2026-05-04 12:20 34.26457 134.46906 25223 ft 332 kts 226°
2026-05-04 12:21 34.24587 134.45172 25836 ft 339 kts 218°
2026-05-04 12:21 34.22536 134.43788 26369 ft 347 kts 213°
2026-05-04 12:21 34.20300 134.42603 26912 ft 354 kts 209°
2026-05-04 12:21 34.17984 134.41551 27549 ft 357 kts 207°
2026-05-04 12:22 34.15624 134.40556 28272 ft 361 kts 207°
2026-05-04 12:22 34.13243 134.39562 28920 ft 363 kts 207°
2026-05-04 12:22 34.10929 134.38385 29512 ft 360 kts 213°
2026-05-04 12:22 34.08773 134.36864 30019 ft 358 kts 219°
2026-05-04 12:23 34.06823 134.34996 30365 ft 360 kts 225°
2026-05-04 12:23 34.05089 134.32811 30776 ft 362 kts 230°
2026-05-04 12:23 34.03437 134.30505 31288 ft 365 kts 231°
2026-05-04 12:23 34.01834 134.28173 31709 ft 368 kts 232°
2026-05-04 12:24 34.00210 134.25773 32143 ft 371 kts 232°
2026-05-04 12:24 33.98548 134.23377 32536 ft 374 kts 231°
2026-05-04 12:24 33.96874 134.20967 32939 ft 377 kts 231°
2026-05-04 12:24 33.95194 134.18537 33264 ft 379 kts 232°
2026-05-04 12:25 33.93519 134.16066 33653 ft 381 kts 232°
2026-05-04 12:25 33.91839 134.13582 33986 ft 384 kts 232°
2026-05-04 12:25 33.90155 134.11106 34302 ft 386 kts 232°
2026-05-04 12:26 33.86516 134.05842 35046 ft 388 kts 232°
2026-05-04 12:26 33.84793 134.03366 35495 ft 385 kts 233°
2026-05-04 12:26 33.83077 134.00909 36107 ft 379 kts 233°
2026-05-04 12:26 33.81392 133.98497 36694 ft 376 kts 234°
2026-05-04 12:27 33.79727 133.96103 37129 ft 375 kts 234°
2026-05-04 12:27 33.78058 133.93703 37685 ft 373 kts 234°
2026-05-04 12:27 33.76290 133.91393 38051 ft 376 kts 230°
2026-05-04 12:27 33.74410 133.89270 38474 ft 376 kts 229°
2026-05-04 12:28 33.72463 133.87173 38717 ft 377 kts 228°
2026-05-04 12:28 33.70484 133.85088 38895 ft 379 kts 228°
2026-05-04 12:28 33.68509 133.83021 39128 ft 380 kts 227°
2026-05-04 12:28 33.66516 133.80942 39425 ft 378 kts 227°
2026-05-04 12:29 33.64536 133.78877 39738 ft 376 kts 227°
2026-05-04 12:29 33.62586 133.76842 39834 ft 364 kts 227°
2026-05-04 12:29 33.60716 133.74896 39805 ft 349 kts 227°
2026-05-04 12:29 33.58923 133.73032 39836 ft 344 kts 228°
2026-05-04 12:30 33.55425 133.69156 39829 ft 341 kts 233°
2026-05-04 12:30 33.52623 133.64624 39834 ft 337 kts 242°
2026-05-04 12:31 33.50317 133.59739 39827 ft 336 kts 243°
2026-05-04 12:31 33.48108 133.54868 39839 ft 335 kts 243°
2026-05-04 12:32 33.44754 133.47515 39848 ft 336 kts 243°
2026-05-04 12:33 33.42482 133.42636 39874 ft 337 kts 241°
2026-05-04 12:33 33.39646 133.38149 39879 ft 342 kts 231°
2026-05-04 12:34 33.36260 133.34193 39890 ft 344 kts 229°
2026-05-04 12:34 33.32742 133.30289 39894 ft 345 kts 229°
2026-05-04 12:35 33.29228 133.26385 39898 ft 345 kts 229°
2026-05-04 12:35 33.25730 133.22466 39913 ft 345 kts 230°
2026-05-04 12:36 33.22271 133.18588 39912 ft 343 kts 230°
2026-05-04 12:36 33.18782 133.14666 39915 ft 345 kts 230°
2026-05-04 12:37 33.15283 133.10741 39913 ft 346 kts 229°
2026-05-04 12:37 33.11791 133.06828 39893 ft 345 kts 230°
2026-05-04 12:38 33.08283 133.02890 39906 ft 346 kts 229°
2026-05-04 12:38 33.04802 132.98994 39932 ft 345 kts 230°
2026-05-04 12:39 33.01296 132.95087 39921 ft 345 kts 229°
2026-05-04 12:39 32.97788 132.91195 39914 ft 345 kts 229°
2026-05-04 12:40 32.94277 132.87293 39927 ft 345 kts 229°
2026-05-04 12:40 32.90807 132.83428 39936 ft 343 kts 229°
2026-05-04 12:41 32.87305 132.79535 39937 ft 346 kts 229°
2026-05-04 12:41 32.83778 132.75642 39925 ft 346 kts 229°
2026-05-04 12:42 32.80265 132.71743 39939 ft 346 kts 229°
2026-05-04 12:42 32.76769 132.67871 39358 ft 346 kts 229°
2026-05-04 12:42 32.75025 132.65943 39080 ft 338 kts 229°
2026-05-04 12:43 32.73321 132.64064 38817 ft 331 kts 230°
2026-05-04 12:43 32.71648 132.62219 38487 ft 325 kts 230°
2026-05-04 12:43 32.70007 132.60409 38163 ft 319 kts 230°
2026-05-04 12:43 32.68397 132.58632 37788 ft 313 kts 230°
2026-05-04 12:44 32.66813 132.56882 37351 ft 309 kts 230°
2026-05-04 12:44 32.65252 132.55155 36962 ft 305 kts 230°
2026-05-04 12:44 32.63732 132.53476 36591 ft 300 kts 230°
2026-05-04 12:44 32.62216 132.51804 36228 ft 295 kts 230°
2026-05-04 12:45 32.60724 132.50158 35871 ft 291 kts 229°
2026-05-04 12:45 32.59255 132.48540 35504 ft 286 kts 229°
2026-05-04 12:45 32.57809 132.46947 35157 ft 281 kts 229°
2026-05-04 12:45 32.56389 132.45386 34856 ft 275 kts 229°
2026-05-04 12:46 32.54998 132.43857 34530 ft 271 kts 229°
2026-05-04 12:46 32.53646 132.42370 34208 ft 267 kts 228°
2026-05-04 12:46 32.52290 132.40879 33737 ft 267 kts 228°
2026-05-04 12:46 32.50920 132.39369 33111 ft 271 kts 228°
2026-05-04 12:47 32.49526 132.37831 32452 ft 276 kts 228°
2026-05-04 12:47 32.48108 132.36270 31797 ft 281 kts 227°
2026-05-04 12:47 32.46666 132.34685 31178 ft 285 kts 227°
2026-05-04 12:47 32.45201 132.33079 30560 ft 289 kts 227°
2026-05-04 12:48 32.43717 132.31454 29906 ft 293 kts 227°
2026-05-04 12:48 32.42211 132.29807 29194 ft 296 kts 227°
2026-05-04 12:48 32.40688 132.28142 28517 ft 300 kts 227°
2026-05-04 12:48 32.39172 132.26484 27851 ft 302 kts 227°
2026-05-04 12:49 32.37646 132.24761 27203 ft 304 kts 230°
2026-05-04 12:49 32.36264 132.22871 26574 ft 304 kts 234°
2026-05-04 12:49 32.35056 132.20817 25950 ft 305 kts 237°
2026-05-04 12:49 32.33908 132.18703 25366 ft 306 kts 238°
2026-05-04 12:50 32.32783 132.16559 24768 ft 307 kts 238°
2026-05-04 12:50 32.31670 132.14402 24157 ft 308 kts 239°
2026-05-04 12:50 32.30556 132.12235 23576 ft 308 kts 239°
2026-05-04 12:50 32.29440 132.10068 22912 ft 309 kts 239°
2026-05-04 12:51 32.28335 132.07932 22251 ft 309 kts 238°
2026-05-04 12:51 32.27214 132.05773 21605 ft 308 kts 238°
2026-05-04 12:51 32.26090 132.03615 20959 ft 308 kts 238°
2026-05-04 12:51 32.24966 132.01462 20338 ft 308 kts 238°
2026-05-04 12:52 32.23844 131.99314 19727 ft 307 kts 238°
2026-05-04 12:52 32.22723 131.97172 19136 ft 306 kts 238°
2026-05-04 12:52 32.21605 131.95035 18556 ft 305 kts 238°
2026-05-04 12:52 32.20490 131.92907 17872 ft 304 kts 238°
2026-05-04 12:53 32.19392 131.90811 17246 ft 303 kts 238°
2026-05-04 12:53 32.18298 131.88726 16928 ft 293 kts 239°
2026-05-04 12:53 32.17245 131.86722 16698 ft 281 kts 239°
2026-05-04 12:53 32.16235 131.84800 16501 ft 270 kts 239°
2026-05-04 12:54 32.15268 131.82960 16299 ft 258 kts 239°
2026-05-04 12:54 32.14342 131.81198 16134 ft 247 kts 240°
2026-05-04 12:54 32.13459 131.79514 15975 ft 236 kts 240°
2026-05-04 12:54 32.12614 131.77902 15817 ft 226 kts 240°
2026-05-04 12:55 32.11806 131.76365 15681 ft 215 kts 241°
2026-05-04 12:55 32.11047 131.74921 15546 ft 205 kts 241°
2026-05-04 12:55 32.10313 131.73525 15409 ft 195 kts 241°
2026-05-04 12:55 32.09615 131.72199 15282 ft 185 kts 242°
2026-05-04 12:56 32.08953 131.70942 15138 ft 176 kts 242°
2026-05-04 12:56 32.08317 131.69733 14913 ft 171 kts 242°
2026-05-04 12:56 32.07694 131.68545 14688 ft 170 kts 243°
2026-05-04 12:56 32.07069 131.67356 14449 ft 171 kts 243°
2026-05-04 12:57 32.06655 131.66568 14300 ft 171 kts 243°
2026-05-04 12:57 32.05824 131.64988 13989 ft 171 kts 244°
2026-05-04 12:57 32.05196 131.63796 13748 ft 171 kts 244°
2026-05-04 12:57 32.04567 131.62602 13498 ft 171 kts 244°
2026-05-04 12:58 32.03939 131.61410 13230 ft 171 kts 244°
2026-05-04 12:58 32.03313 131.60222 12987 ft 170 kts 244°
2026-05-04 12:58 32.02690 131.59042 12727 ft 169 kts 244°
2026-05-04 12:58 32.02070 131.57867 12474 ft 169 kts 244°
2026-05-04 12:59 32.01452 131.56697 12221 ft 168 kts 244°
2026-05-04 12:59 32.00845 131.55549 12001 ft 168 kts 244°
2026-05-04 12:59 32.00228 131.54380 11750 ft 168 kts 244°
2026-05-04 12:59 31.99612 131.53216 11510 ft 167 kts 243°
2026-05-04 13:00 31.98999 131.52056 11258 ft 166 kts 243°
2026-05-04 13:00 31.98397 131.50918 11029 ft 166 kts 243°
2026-05-04 13:00 31.97789 131.49769 10783 ft 165 kts 243°
2026-05-04 13:00 31.97182 131.48624 10511 ft 164 kts 244°
2026-05-04 13:01 31.96580 131.47488 10302 ft 163 kts 243°
2026-05-04 13:01 31.95989 131.46372 10098 ft 163 kts 243°
2026-05-04 13:01 31.95392 131.45245 9963 ft 162 kts 243°
2026-05-04 13:01 31.94797 131.44122 9945 ft 162 kts 243°
2026-05-04 13:02 31.93798 131.42237 9855 ft 161 kts 243°
2026-05-04 13:02 31.92997 131.40742 9770 ft 161 kts 243°
2026-05-04 13:02 31.92600 131.40002 9743 ft 161 kts 243°
2026-05-04 13:03 31.92010 131.38899 9679 ft 161 kts 243°
2026-05-04 13:03 31.91218 131.37419 9571 ft 161 kts 244°
2026-05-04 13:03 31.90624 131.36301 9457 ft 162 kts 244°
2026-05-04 13:03 31.90024 131.35176 9383 ft 162 kts 243°
2026-05-04 13:04 31.89420 131.34049 9350 ft 163 kts 243°
2026-05-04 13:04 31.89014 131.33307 9238 ft 163 kts 244°
2026-05-04 13:04 31.88407 131.32178 9137 ft 164 kts 244°
2026-05-04 13:04 31.87795 131.31032 9065 ft 163 kts 244°
2026-05-04 13:05 31.87194 131.29905 9021 ft 162 kts 243°
2026-05-04 13:05 31.86593 131.28780 8922 ft 162 kts 244°
2026-05-04 13:05 31.85992 131.27656 8820 ft 162 kts 244°
2026-05-04 13:05 31.85389 131.26533 8691 ft 163 kts 244°
2026-05-04 13:06 31.84784 131.25400 8481 ft 165 kts 244°
2026-05-04 13:06 31.84174 131.24256 8359 ft 165 kts 244°
2026-05-04 13:06 31.83566 131.23106 8182 ft 166 kts 244°
2026-05-04 13:06 31.82961 131.21974 8005 ft 167 kts 245°
2026-05-04 13:07 31.82345 131.20818 7823 ft 167 kts 245°
2026-05-04 13:07 31.81726 131.19670 7760 ft 166 kts 244°
2026-05-04 13:07 31.81111 131.18536 7674 ft 165 kts 245°
2026-05-04 13:07 31.80490 131.17401 7536 ft 165 kts 245°
2026-05-04 13:08 31.79874 131.16261 7374 ft 165 kts 245°
2026-05-04 13:08 31.79263 131.15125 7162 ft 166 kts 245°
2026-05-04 13:08 31.78646 131.13979 6930 ft 166 kts 246°
2026-05-04 13:08 31.78029 131.12832 6680 ft 166 kts 246°
2026-05-04 13:09 31.77416 131.11691 6440 ft 168 kts 246°
2026-05-04 13:09 31.76787 131.10522 6195 ft 169 kts 246°
2026-05-04 13:09 31.76156 131.09351 6041 ft 170 kts 247°
2026-05-04 13:09 31.75521 131.08171 6017 ft 171 kts 247°
2026-05-04 13:10 31.74884 131.06988 5981 ft 171 kts 247°
2026-05-04 13:10 31.74249 131.05806 5891 ft 171 kts 247°
2026-05-04 13:10 31.73614 131.04623 5742 ft 172 kts 247°
2026-05-04 13:10 31.72978 131.03435 5630 ft 171 kts 247°
2026-05-04 13:11 31.72341 131.02251 5546 ft 171 kts 247°
2026-05-04 13:11 31.71718 131.01091 5429 ft 172 kts 247°
2026-05-04 13:11 31.71080 130.99904 5317 ft 172 kts 247°
2026-05-04 13:11 31.70439 130.98712 5201 ft 173 kts 248°
2026-05-04 13:12 31.69798 130.97521 5070 ft 172 kts 248°
2026-05-04 13:12 31.69163 130.96322 4964 ft 173 kts 249°
2026-05-04 13:12 31.68521 130.95128 4883 ft 172 kts 249°
2026-05-04 13:12 31.67878 130.93935 4750 ft 174 kts 249°
2026-05-04 13:13 31.67257 130.92749 4695 ft 172 kts 252°
2026-05-04 13:13 31.66817 130.91493 4606 ft 166 kts 263°
2026-05-04 13:13 31.66531 130.90197 4478 ft 164 kts 266°
2026-05-04 13:13 31.66296 130.88885 4205 ft 166 kts 268°
2026-05-04 13:14 31.66082 130.87548 3891 ft 167 kts 270°
2026-05-04 13:14 31.66061 130.86209 3635 ft 161 kts 285°
2026-05-04 13:14 31.66344 130.84943 3545 ft 160 kts 293°
2026-05-04 13:14 31.66717 130.83709 3482 ft 161 kts 294°
2026-05-04 13:15 31.67105 130.82479 3421 ft 160 kts 294°
2026-05-04 13:15 31.67501 130.81277 3337 ft 152 kts 298°
2026-05-04 13:15 31.68064 130.80328 3308 ft 135 kts 315°
2026-05-04 13:15 31.68794 130.79758 3231 ft 124 kts 330°
2026-05-04 13:16 31.69534 130.79271 3059 ft 121 kts 326°
2026-05-04 13:16 31.70255 130.78769 2894 ft 119 kts 327°
2026-05-04 13:16 31.70960 130.78294 2734 ft 115 kts 327°
2026-05-04 13:16 31.71648 130.77827 2573 ft 115 kts 327°
2026-05-04 13:17 31.72344 130.77355 2414 ft 115 kts 326°
2026-05-04 13:17 31.73024 130.76895 2260 ft 111 kts 326°
2026-05-04 13:17 31.73694 130.76439 2116 ft 111 kts 326°
2026-05-04 13:17 31.74356 130.75991 1965 ft 112 kts 326°
2026-05-04 13:18 31.75030 130.75534 1815 ft 112 kts 326°
2026-05-04 13:18 31.75701 130.75080 1675 ft 111 kts 326°
2026-05-04 13:18 31.76372 130.74624 1519 ft 114 kts 326°
2026-05-04 13:18 31.77061 130.74159 1369 ft 115 kts 326°
2026-05-04 13:19 31.77759 130.73691 1198 ft 116 kts 319°
2026-05-04 13:19 31.78449 130.73247 1004 ft 109 kts 324°
2026-05-04 13:19 31.79113 130.72774 918 ft 115 kts 326°
2026-05-04 13:19 31.79727 130.72345 894 ft 73 kts 330°
2026-05-04 13:20 31.79946 130.72204 899 ft 18 kts 330°
2026-05-04 13:20 31.80014 130.72116 902 ft 13 kts 276°
2026-05-04 13:20 31.79993 130.72023 903 ft 12 kts 255°
2026-05-04 13:20 31.80013 130.71946 905 ft 8 kts 314°
2026-05-04 13:21 31.80053 130.71910 906 ft 7 kts 326°
2026-05-04 13:21 31.80090 130.71879 908 ft 5 kts 311°
2026-05-04 13:21 31.80090 130.71850 907 ft 4 kts 257°
2026-05-04 13:21 31.80072 130.71799 905 ft 9 kts 245°
2026-05-04 13:22 31.80047 130.71748 904 ft 0 kts 239°